Regional Weather Roundup
Issued by NWS Raleigh/Durham, NC

Home | Current Version | Previous Version | Text Only | Print | Product List | Glossary On
Versions: 1 2 3 4 5 6 7 8 9 10 11 12 13 14 15 16 17 18 19 20 21 22 23 24 25 26 27 28 29 30 31 32 33 34 35 36 37 38 39 40 41 42 43 44 45 46 47 48 49 50
000
ASUS42 KRAH 241810
RWRRAH
NORTH CAROLINA WEATHER ROUNDUP
NATIONAL WEATHER SERVICE RALEIGH NC
100 PM EST SAT FEB 24 2018

NOTE: "FAIR" INDICATES FEW OR NO CLOUDS BELOW 12,000 FEET WITH NO
SIGNIFICANT WEATHER AND/OR OBSTRUCTIONS TO VISIBILITY.

NCZ001-053-055-056-065-067-241900-
WESTERN NORTH CAROLINA

CITY           SKY/WX    TMP DP  RH WIND       PRES   REMARKS
ASHEVILLE      CLOUDY    72  55  55 S14G22    30.15F
JEFFERSON      CLOUDY    66  56  70 SE7       30.14F
MORGANTON      FAIR      75  58  55 S12G18    30.15F
HICKORY        FAIR      73  60  63 S14G29    30.13F
RUTHERFORDTON  FAIR      74  59  59 S13G20    30.14F
MOUNT AIRY     FAIR      62  58  84 CALM      30.17F
BOONE          PTSUNNY   65  53  65 S7G18     30.17F
$$

NCZ021-022-025-041-071-084-088-241900-
CENTRAL NORTH CAROLINA

CITY           SKY/WX    TMP DP  RH WIND       PRES   REMARKS
CHARLOTTE      FAIR      75  63  66 SW15      30.17F
GREENSBORO     PTSUNNY   73  62  68 SW15G25   30.13F
WINSTON-SALEM  FAIR      74  59  59 SW8G23    30.14F
RALEIGH-DURHAM PTSUNNY   72  60  66 SW16      30.17F
FORT BRAGG     FAIR      74  60  60 SW12G17   30.17F
FAYETTEVILLE   FAIR      74  62  66 SW12      30.18F
BURLINGTON     CLOUDY    74  61  63 S12G18    30.13F
LAURINBURG     FAIR      75  62  64 SW12G17   30.19F
$$

NCZ011-015-027-028-043-044-047-080-103-241900-
NORTHEASTERN NORTH CAROLINA

CITY           SKY/WX    TMP DP  RH WIND       PRES   REMARKS
ROCKY MT-WILSO CLOUDY    72  60  66 SW13      30.17F
GREENVILLE     FAIR      73  61  64 SW14G22   30.18F
WASHINGTON     CLOUDY    75  61  60 S8G20     30.18F
ELIZABETH CITY FAIR      74  64  71 SW15      30.15F
MANTEO         FAIR      71  60  66 W13       30.16F
CAPE HATTERAS  CLOUDY    68  61  78 SW9       30.20F
$$

NCZ078-087-090-091-093-098-101-241900-
SOUTHEASTERN NORTH CAROLINA

CITY           SKY/WX    TMP DP  RH WIND       PRES   REMARKS
LUMBERTON      FAIR      76  62  62 SW13      30.18F
GOLDSBORO      FAIR      73  61  65 SW16      30.17F
KINSTON        PTSUNNY   77  61  57 SW16G22   30.19F
KENANSVILLE    PTSUNNY   75  61  60 W14       30.19F
NEW BERN       FAIR      76  62  62 SW12      30.19F
CHERRY POINT   NOT AVBL
BEAUFORT       FAIR      70  64  81 SW12      30.20F
JACKSONVILLE   PTSUNNY   78  62  57 SW10      30.17F
WILMINGTON     FAIR      75  63  66 W12       30.19F
$$




USA.gov is the U.S. government's official web portal to all federal, state and local government web resources and services.